Location: Asheville, NC
(35.6000°N, 82.5500°W)
Time: 20:22:12
(UTC-04:00)

FALCONSAT 3 - Pass Details

Date: 09 March 2018
Orbit: 461 x 464 km, 35.4° (Epoch: 20 June)

Event Time Altitude Azimuth Distance (km) Brightness Sun altitude
Exits shadow 04:40:24 21° 124° (ESE) 1,074 ? -26.8°
Drops below altitude 10° 04:42:16 10° 98° (E) 1,603 ? -26.5°
Sets 04:44:40 0° 85° (E) 2,478 ? -26.0°
